This is the latest recevied weather packets stored in our database for station/object K7CTM. If no packets are shown the sender has not sent any weather packets the latest 10 day(s).
| Time | Temp. | Humidity | Pressure | Rain* | Wind** | Luminosity | Snow |
|---|---|---|---|---|---|---|---|
| 1777823594 | 14.44° C | 52% | 1025.2 hPa | 0 mm | - | 557 W/m² | - |
| 1777823290 | 13.89° C | 53% | 1025.2 hPa | 0 mm | - | 544 W/m² | - |
| 1777822988 | 13.33° C | 52% | 1025.2 hPa | 0 mm | - | 529 W/m² | - |
| 1777822686 | 13.33° C | 54% | 1025.4 hPa | 0 mm | - | 514 W/m² | - |
| 1777822384 | 12.78° C | 55% | 1025.2 hPa | 0 mm | - | 501 W/m² | - |
| 1777822081 | 12.22° C | 56% | 1025.4 hPa | 0 mm | - | 485 W/m² | - |
| 1777821779 | 12.22° C | 56% | 1025.4 hPa | 0 mm | - | 469 W/m² | - |
| 1777821475 | 11.67° C | 58% | 1025.4 hPa | 0 mm | - | 459 W/m² | - |
| 1777821173 | 11.67° C | 58% | 1025.4 hPa | 0 mm | - | 440 W/m² | - |
| 1777820870 | 10.56° C | 62% | 1025.4 hPa | 0 mm | - | 424 W/m² | - |
| 1777820565 | 10.56° C | 62% | 1025.4 hPa | 0 mm | - | 408 W/m² | - |
| 1777820262 | 10.56° C | 62% | 1025.6 hPa | 0 mm | - | 393 W/m² | - |
| 1777819960 | 10.56° C | 63% | 1025.7 hPa | 0 mm | - | 379 W/m² | - |
| 1777819657 | 10° C | 65% | 1025.6 hPa | 0 mm | - | 362 W/m² | - |
| 1777819355 | 10° C | 65% | 1025.7 hPa | 0 mm | - | 344 W/m² | - |
| 1777819051 | 10° C | 65% | 1026 hPa | 0 mm | - | 328 W/m² | - |
| 1777818749 | 9.44° C | 67% | 1025.7 hPa | 0 mm | - | 310 W/m² | - |
| 1777818445 | 9.44° C | 66% | 1025.8 hPa | 0 mm | - | 293 W/m² | - |
| 1777818142 | 8.89° C | 68% | 1026 hPa | 0 mm | - | 275 W/m² | - |
| 1777817839 | 8.33° C | 70% | 1026.1 hPa | 0 mm | - | 260 W/m² | - |
| 1777817536 | 7.78° C | 70% | 1026.2 hPa | 0 mm | - | 244 W/m² | - |
| 1777817233 | 7.78° C | 70% | 1026.3 hPa | 0 mm | - | 229 W/m² | - |
| 1777816930 | 7.78° C | 71% | 1026.2 hPa | 0 mm | - | 213 W/m² | - |
| 1777816627 | 7.78° C | 71% | 1026.4 hPa | 0 mm | - | 196 W/m² | - |
| 1777816323 | 7.78° C | 71% | 1026.4 hPa | 0 mm | - | 182 W/m² | - |
* Rain latest hour (hover to see other rain measurements)
** Current wind speed in m/s (hover to see current wind gust speed)